Location: Croydon
(51.3762°N, 0.0982°W)
Time: 22:21:32
(UTC+01:00)

VELOX 1 - Pass Details

Date: 24 April 2019
Orbit: 629 x 644 km, 98.2° (Epoch: 24 May)

Event Time Altitude Azimuth Distance (km) Brightness Sun altitude
Exits shadow 03:12:23 18° 280° (W) 1,541 ? -19.6°
Drops below altitude 10° 03:14:54 10° 315° (NW) 2,020 ? -19.4°
Sets 03:17:41 0° 333° (NNW) 2,934 ? -19.2°
